When you browse on this site, cookies collect data to enhance your experience and personalize the content and advertising you see.
Visit our Privacy Policy to learn more. By continuing to use the site, you agree to this use of cookies and data.
  • In Sweden
  • List of Countries
  • For 7 days
  • Water Temperature
  • Weather Map
  • Weather Widgets
  • user-avatar
    Login

    Hourly Weather Piksev

    Today, 18 October, Friday

    Time Temperature Precipitation Wind Pressure Humidity
    00:00 +8°C° 0 mm 6 mps 750 mmHg 77%
    01:00 +8°C° 0 mm 6 mps 749 mmHg 78%
    02:00 +8°C° 0 mm 6 mps 749 mmHg 80%
    03:00 +8°C° 0 mm 6 mps 749 mmHg 82%
    04:00 +8°C° 0 mm 6 mps 748 mmHg 84%
    05:00 +8°C° 0 mm 5 mps 748 mmHg 86%
    06:00 +7°C° 0 mm 5 mps 747 mmHg 89%
    07:00 +8°C° 0 mm 5 mps 747 mmHg 88%
    08:00 +9°C° 0 mm 5 mps 748 mmHg 87%
    09:00 +9°C° 0 mm 5 mps 748 mmHg 86%
    10:00 +12°C° 0 mm 5 mps 747 mmHg 83%
    11:00 +13°C° 0 mm 5 mps 747 mmHg 79%
    12:00 +14°C° 0 mm 5 mps 747 mmHg 76%
    13:00 +14°C° 0 mm 5 mps 747 mmHg 76%
    14:00 +14°C° 0 mm 5 mps 747 mmHg 75%
    15:00 +14°C° 0 mm 4 mps 747 mmHg 75%
    16:00 +13°C° 0 mm 4 mps 747 mmHg 78%
    17:00 +13°C° 0 mm 3 mps 747 mmHg 82%
    18:00 +13°C° 0 mm 2 mps 748 mmHg 86%
    19:00 +12°C° 0 mm 2 mps 748 mmHg 87%
    20:00 +12°C° 0 mm 1 mps 748 mmHg 87%
    21:00 +12°C° 0 mm 1 mps 748 mmHg 88%
    22:00 +12°C° 0 mm 1 mps 749 mmHg 88%
    23:00 +12°C° 0 mm 1 mps 749 mmHg 88%

    Tomorrow, 19 October, Saturday

    Time Temperature Precipitation Wind Pressure Humidity
    00:00 +12°C° 0 mm 1 mps 749 mmHg 88%
    01:00 +10°C° 0 mm 2 mps 749 mmHg 89%
    02:00 +10°C° 0 mm 2 mps 749 mmHg 90%
    03:00 +9°C° 0 mm 2 mps 750 mmHg 91%
    04:00 +9°C° 0 mm 2 mps 750 mmHg 90%
    05:00 +9°C° 0 mm 2 mps 750 mmHg 89%
    06:00 +9°C° 0 mm 2 mps 750 mmHg 89%
    07:00 +9°C° 0 mm 2 mps 751 mmHg 88%
    08:00 +9°C° 0 mm 2 mps 751 mmHg 88%
    09:00 +10°C° 0 mm 2 mps 752 mmHg 88%
    10:00 +10°C° 0 mm 2 mps 752 mmHg 85%
    11:00 +10°C° 0 mm 2 mps 752 mmHg 83%
    12:00 +12°C° 0 mm 2 mps 752 mmHg 80%
    13:00 +12°C° 0 mm 2 mps 752 mmHg 79%
    14:00 +12°C° 0 mm 2 mps 753 mmHg 78%
    15:00 +12°C° 0 mm 2 mps 753 mmHg 77%
    16:00 +10°C° 0 mm 2 mps 753 mmHg 79%
    17:00 +9°C° 0 mm 2 mps 753 mmHg 82%
    18:00 +9°C° 0 mm 2 mps 753 mmHg 85%
    19:00 +9°C° 0 mm 2 mps 754 mmHg 84%
    20:00 +9°C° 0 mm 1 mps 754 mmHg 84%
    21:00 +9°C° 0 mm 1 mps 754 mmHg 83%
    22:00 +9°C° 0 mm 1 mps 754 mmHg 84%
    23:00 +9°C° 0 mm 1 mps 755 mmHg 85%

    Day after tomorrow, 20 October, Sunday

    Time Temperature Precipitation Wind Pressure Humidity
    00:00 +9°C° 0 mm 1 mps 755 mmHg 86%
    01:00 +8°C° 0 mm 1 mps 755 mmHg 88%
    02:00 +8°C° 0 mm 1 mps 755 mmHg 89%
    03:00 +7°C° 0 mm 1 mps 755 mmHg 91%
    04:00 +7°C° 0 mm 1 mps 755 mmHg 91%
    05:00 +7°C° 0 mm 1 mps 755 mmHg 92%
    06:00 +7°C° 0 mm 1 mps 755 mmHg 93%
    07:00 +8°C° 0 mm 1 mps 755 mmHg 90%
    08:00 +8°C° 0 mm 1 mps 755 mmHg 87%
    09:00 +8°C° 0 mm 2 mps 755 mmHg 84%
    10:00 +9°C° 0 mm 2 mps 755 mmHg 79%
    11:00 +10°C° 0 mm 2 mps 755 mmHg 75%
    12:00 +13°C° 0 mm 2 mps 755 mmHg 70%
    13:00 +13°C° 0 mm 2 mps 755 mmHg 69%
    14:00 +13°C° 0 mm 2 mps 755 mmHg 68%
    15:00 +14°C° 0 mm 2 mps 755 mmHg 67%
    16:00 +13°C° 0 mm 2 mps 755 mmHg 72%
    17:00 +12°C° 0 mm 2 mps 755 mmHg 76%
    18:00 +10°C° 0 mm 3 mps 755 mmHg 80%
    19:00 +10°C° 0 mm 3 mps 755 mmHg 81%
    20:00 +10°C° 0 mm 3 mps 755 mmHg 82%
    21:00 +9°C° 0 mm 3 mps 755 mmHg 83%
    22:00 +9°C° 0 mm 3 mps 755 mmHg 83%
    23:00 +9°C° 0 mm 3 mps 755 mmHg 83%

    21 October, Monday

    Time Temperature Precipitation Wind Pressure Humidity
    00:00 +9°C° 0 mm 3 mps 755 mmHg 83%
    01:00 +9°C° 0 mm 3 mps 755 mmHg 85%
    02:00 +9°C° 0 mm 3 mps 755 mmHg 87%
    03:00 +8°C° 0 mm 3 mps 755 mmHg 89%
    04:00 +8°C° 0 mm 3 mps 754 mmHg 90%
    05:00 +8°C° 0 mm 3 mps 754 mmHg 91%
    06:00 +8°C° 0 mm 3 mps 754 mmHg 92%
    07:00 +9°C° 0 mm 3 mps 754 mmHg 88%
    08:00 +10°C° 0 mm 3 mps 754 mmHg 84%
    09:00 +10°C° 0 mm 4 mps 754 mmHg 80%
    10:00 +12°C° 0 mm 4 mps 754 mmHg 76%
    11:00 +13°C° 0 mm 4 mps 754 mmHg 72%
    12:00 +14°C° 0 mm 4 mps 754 mmHg 67%
    13:00 +14°C° 0 mm 4 mps 754 mmHg 67%
    14:00 +15°C° 0 mm 4 mps 753 mmHg 67%
    15:00 +15°C° 0 mm 4 mps 753 mmHg 67%
    16:00 +14°C° 0 mm 4 mps 753 mmHg 72%
    17:00 +13°C° 0 mm 4 mps 753 mmHg 78%
    18:00 +11°C° 0 mm 4 mps 752 mmHg 84%
    19:00 +11°C° 0 mm 4 mps 752 mmHg 84%
    20:00 +10°C° 0 mm 5 mps 752 mmHg 84%
    21:00 +10°C° 0 mm 5 mps 752 mmHg 84%
    22:00 +10°C° 0 mm 5 mps 751 mmHg 84%
    23:00 +10°C° 0 mm 5 mps 751 mmHg 84%

    22 October, Tuesday

    Time Temperature Precipitation Wind Pressure Humidity
    00:00 +10°C° 0 mm 6 mps 750 mmHg 83%
    01:00 +9°C° 0 mm 6 mps 750 mmHg 83%
    02:00 +9°C° 0 mm 6 mps 749 mmHg 83%
    03:00 +9°C° 0 mm 6 mps 749 mmHg 83%
    04:00 +9°C° 0 mm 6 mps 748 mmHg 82%
    05:00 +9°C° 0 mm 7 mps 748 mmHg 81%
    06:00 +9°C° 0 mm 7 mps 747 mmHg 81%
    07:00 +9°C° 0 mm 7 mps 747 mmHg 79%
    08:00 +10°C° 0 mm 8 mps 746 mmHg 76%
    09:00 +10°C° 0 mm 8 mps 746 mmHg 74%
    10:00 +11°C° 0 mm 8 mps 745 mmHg 71%
    11:00 +12°C° 0 mm 9 mps 745 mmHg 68%
    12:00 +13°C° 0 mm 9 mps 745 mmHg 64%
    13:00 +12°C° 0.7 mm 8 mps 745 mmHg 72%
    14:00 +11°C° 0.7 mm 7 mps 745 mmHg 79%
    15:00 +10°C° 0.7 mm 5 mps 745 mmHg 86%
    16:00 +10°C° 0 mm 5 mps 745 mmHg 87%
    17:00 +11°C° 0 mm 4 mps 745 mmHg 88%
    18:00 +11°C° 0 mm 4 mps 746 mmHg 89%
    19:00 +11°C° 0 mm 4 mps 746 mmHg 89%
    20:00 +10°C° 0 mm 4 mps 747 mmHg 88%
    21:00 +9°C° 0 mm 5 mps 747 mmHg 87%
    22:00 +8°C° 0 mm 5 mps 748 mmHg 84%
    23:00 +7°C° 0 mm 4 mps 748 mmHg 82%

    23 October, Wednesday

    Time Temperature Precipitation Wind Pressure Humidity
    00:00 +7°C° 0 mm 4 mps 748 mmHg 79%
    01:00 +6°C° 0 mm 4 mps 749 mmHg 81%
    02:00 +5°C° 0 mm 4 mps 750 mmHg 83%
    03:00 +5°C° 0 mm 4 mps 750 mmHg 85%
    04:00 +4°C° 0 mm 4 mps 751 mmHg 86%
    05:00 +3°C° 0 mm 3 mps 752 mmHg 88%
    06:00 +3°C° 0 mm 3 mps 752 mmHg 89%
    07:00 +3°C° 0 mm 3 mps 753 mmHg 87%
    08:00 +4°C° 0 mm 3 mps 753 mmHg 85%
    09:00 +4°C° 0 mm 3 mps 754 mmHg 82%
    10:00 +5°C° 0 mm 3 mps 754 mmHg 75%
    11:00 +5°C° 0 mm 3 mps 754 mmHg 68%
    12:00 +7°C° 0 mm 2 mps 754 mmHg 61%
    13:00 +7°C° 0 mm 2 mps 754 mmHg 60%
    14:00 +7°C° 0 mm 2 mps 754 mmHg 58%
    15:00 +7°C° 0 mm 2 mps 754 mmHg 57%
    16:00 +7°C° 0 mm 2 mps 754 mmHg 61%
    17:00 +6°C° 0 mm 2 mps 755 mmHg 65%
    18:00 +6°C° 0 mm 1 mps 755 mmHg 68%
    19:00 +6°C° 0 mm 1 mps 755 mmHg 70%
    20:00 +4°C° 0 mm 2 mps 755 mmHg 71%
    21:00 +4°C° 0 mm 2 mps 755 mmHg 72%
    22:00 +4°C° 0 mm 2 mps 755 mmHg 73%
    23:00 +3°C° 0 mm 3 mps 755 mmHg 74%
    Show more